CW8721 Weather Reports


Display with metric or nautical units.
time (UTC)temp
F
wind
direction
speed
MPH
gust
MPH
rain 1hr
in
rain 24hr
in
rain mn
in
humidity
%
barometer
mb
20260901110554 62 188 5.0 11.0 0.00 0.00 0.00 67 1008.9
20260901110054 62 172 5.0 11.0 0.00 0.00 0.00 68 1009.0
20260901105554 62 173 4.0 12.0 0.00 0.00 0.00 69 1008.9
20260901105056 62 198 4.0 9.0 0.00 0.00 0.00 68 1008.9
20260901104553 62 175 4.0 12.0 0.00 0.00 0.00 67 1009.0
20260901104053 62 171 5.0 12.0 0.00 0.00 0.00 66 1009.0
20260901103553 62 182 5.0 11.0 0.00 0.00 0.00 67 1009.0
20260901103110 62 171 5.0 11.0 0.00 0.00 0.00 67 1009.0
20260901102552 62 159 4.0 11.0 0.00 0.00 0.00 68 1009.0
20260901102051 62 180 6.0 11.0 0.00 0.00 0.00 68 1009.1
20260901101554 62 180 5.0 12.0 0.00 0.00 0.00 69 1009.1
20260901101050 62 181 6.0 12.0 0.00 0.00 0.00 70 1009.1
20260901100550 62 126 5.0 13.0 0.00 0.00 0.00 70 1009.1
20260901100050 62 152 6.0 13.0 0.00 0.00 0.00 70 1009.1
20260901095549 62 177 6.0 13.0 0.00 0.00 0.00 71 1009.1
20260901095049 62 136 6.0 12.0 0.00 0.00 0.00 71 1009.1
20260901094549 62 184 6.0 10.0 0.00 0.00 0.00 71 1009.1
20260901094048 62 159 3.0 10.0 0.00 0.00 0.00 71 1009.2
20260901093552 62 141 4.0 12.0 0.00 0.00 0.00 70 1009.2
20260901093113 62 159 5.0 12.0 0.00 0.00 0.00 70 1009.2
20260901092544 62 162 4.0 10.0 0.00 0.00 0.00 69 1009.3
20260901092044 63 158 4.0 10.0 0.00 0.00 0.00 68 1009.3
20260901091615 63 179 5.0 12.0 0.00 0.00 0.00 67 1009.1
20260901091044 63 175 3.0 9.0 0.00 0.00 0.00 67 1009.2
20260901090542 63 152 4.0 9.0 0.00 0.00 0.00 66 1009.0
20260901090042 63 181 5.0 11.0 0.00 0.00 0.00 66 1009.1
20260901085540 63 165 4.0 11.0 0.00 0.00 0.00 66 1009.1
20260901085041 63 166 5.0 14.0 0.00 0.00 0.00 66 1009.2
20260901084539 63 173 5.0 14.0 0.00 0.00 0.00 66 1009.2
20260901084038 63 181 4.0 9.0 0.00 0.00 0.00 66 1009.2
20260901083541 63 167 5.0 10.0 0.00 0.00 0.00 66 1009.4
20260901083043 63 180 4.0 8.0 0.00 0.00 0.00 66 1009.6
20260901082536 63 177 3.0 10.0 0.00 0.00 0.00 66 1009.7
20260901082036 63 173 4.0 10.0 0.00 0.00 0.00 66 1009.7
20260901081534 63 189 4.0 9.0 0.00 0.00 0.00 66 1009.8
20260901081035 63 182 4.0 7.0 0.00 0.00 0.00 67 1009.7
20260901080536 63 173 2.0 6.0 0.00 0.00 0.00 67 1009.7
20260901080035 63 173 2.0 6.0 0.00 0.00 0.00 68 1009.8
20260901075533 63 179 2.0 5.0 0.00 0.00 0.00 69 1009.8
20260901075032 63 154 1.0 7.0 0.00 0.00 0.00 69 1009.9
20260901074533 63 152 2.0 7.0 0.00 0.00 0.00 69 1009.7
20260901074032 63 136 0.0 7.0 0.00 0.00 0.00 69 1009.9
20260901073532 63 154 1.0 8.0 0.00 0.00 0.00 69 1009.9
20260901073031 63 107 3.0 8.0 0.00 0.00 0.00 69 1010.0
20260901072531 63 144 2.0 7.0 0.00 0.00 0.00 69 1009.9
20260901072031 63 147 2.0 3.0 0.00 0.00 0.00 68 1010.1
20260901071533 63 156 1.0 4.0 0.00 0.00 0.00 68 1010.0
20260901071035 63 120 1.0 6.0 0.00 0.00 0.00 68 1010.0
20260901070529 63 98 2.0 9.0 0.00 0.00 0.00 67 1010.0
20260901070033 64 132 4.0 9.0 0.00 0.00 0.00 67 1009.9
20260901065530 64 138 3.0 9.0 0.00 0.00 0.00 67 1010.0
20260901065029 64 134 3.0 9.0 0.00 0.00 0.00 67 1010.0
20260901064535 63 146 4.0 11.0 0.00 0.00 0.00 68 1009.9
20260901064028 63 159 4.0 11.0 0.00 0.00 0.00 68 1009.9
20260901063527 63 141 4.0 10.0 0.00 0.00 0.00 68 1009.9
20260901063026 63 155 5.0 11.0 0.00 0.00 0.00 69 1010.0
20260901062526 64 176 2.0 8.0 0.00 0.00 0.00 69 1010.0
20260901062024 64 171 3.0 9.0 0.00 0.00 0.00 69 1010.1
20260901061524 64 178 2.0 13.0 0.00 0.00 0.00 69 1010.0
20260901061025 64 186 4.0 13.0 0.00 0.00 0.00 70 1009.9
20260901060523 63 190 3.0 9.0 0.00 0.00 0.00 70 1009.9
20260901060021 63 159 4.0 6.0 0.00 0.00 0.00 71 1010.1
20260901055520 64 206 2.0 5.0 0.00 0.00 0.00 71 1010.1
20260901055023 64 197 3.0 10.0 0.00 0.00 0.00 70 1010.1
20260901054521 64 182 5.0 12.0 0.00 0.00 0.00 70 1009.9
20260901054020 64 182 4.0 12.0 0.00 0.00 0.00 69 1009.9
20260901053521 64 182 6.0 12.0 0.00 0.00 0.00 69 1009.9
20260901053023 64 182 4.0 9.0 0.00 0.00 0.00 69 1010.2
20260901052520 64 188 3.0 11.0 0.00 0.00 0.00 68 1010.3
20260901052019 64 184 4.0 11.0 0.00 0.00 0.00 68 1010.4
20260901051520 64 205 6.0 11.0 0.00 0.00 0.00 68 1010.5
20260901051019 64 169 6.0 16.0 0.00 0.00 0.00 68 1010.4
20260901050519 64 185 8.0 16.0 0.00 0.00 0.00 68 1010.5
20260901050019 64 135 7.0 13.0 0.00 0.00 0.00 67 1010.4
20260901045518 64 182 6.0 13.0 0.00 0.00 0.00 67 1010.5
20260901045018 64 175 2.0 7.0 0.00 0.00 0.00 68 1010.6
20260901044518 64 117 2.0 6.0 0.00 0.00 0.00 68 1010.6
20260901044017 63 173 0.0 8.0 0.00 0.00 0.00 69 1010.8
20260901043518 63 150 1.0 8.0 0.00 0.00 0.00 70 1010.8
20260901043018 63 80 2.0 7.0 0.00 0.00 0.00 71 1010.7
20260901042516 64 54 2.0 5.0 0.00 0.00 0.00 71 1010.7
20260901042016 64 113 2.0 8.0 0.00 0.00 0.00 69 1010.8
20260901041516 64 360 2.0 8.0 0.00 0.00 0.00 67 1010.8
20260901041016 64 360 3.0 9.0 0.00 0.00 0.00 66 1010.7
20260901040516 64 360 3.0 9.0 0.00 0.00 0.00 67 1010.5
20260901040019 63 360 3.0 9.0 0.00 0.00 0.00 69 1010.4
20260901035521 63 167 2.0 7.0 0.00 0.00 0.00 71 1010.4
20260901035015 63 61 0.0 3.0 0.00 0.00 0.00 71 1010.4
20260901034515 64 79 0.0 6.0 0.00 0.00 0.00 70 1010.4
20260901034018 64 127 2.0 7.0 0.00 0.00 0.00 69 1010.6
20260901033515 64 107 3.0 9.0 0.00 0.00 0.00 68 1010.5
20260901033033 65 163 2.0 9.0 0.00 0.00 0.00 68 1010.4
20260901032515 65 187 4.0 8.0 0.00 0.00 0.00 68 1010.4
20260901032015 65 143 3.0 11.0 0.00 0.00 0.00 68 1010.4
20260901031514 65 360 5.0 11.0 0.00 0.00 0.00 68 1010.3
20260901031014 65 360 5.0 12.0 0.00 0.00 0.00 68 1010.3
20260901030518 64 360 6.0 11.0 0.00 0.00 0.00 68 1010.3
20260901030016 64 360 6.0 11.0 0.00 0.00 0.00 69 1010.0
20260901025515 64 360 5.0 9.0 0.00 0.00 0.00 70 1010.0
20260901025015 64 185 3.0 9.0 0.00 0.00 0.00 71 1010.1
20260901024514 64 159 2.0 14.0 0.00 0.00 0.00 72 1009.9
20260901024014 64 181 5.0 15.0 0.00 0.00 0.00 72 1010.0
20260901023513 64 183 5.0 12.0 0.00 0.00 0.00 72 1010.0
20260901023013 64 134 7.0 14.0 0.00 0.00 0.00 71 1009.9
20260901022514 64 360 6.0 14.0 0.00 0.00 0.00 70 1009.9
20260901022012 64 360 5.0 12.0 0.00 0.00 0.00 70 1009.9
20260901021517 64 360 6.0 14.0 0.00 0.00 0.00 70 1010.0
20260901021012 64 360 4.0 12.0 0.00 0.00 0.00 69 1010.0
20260901020512 64 360 5.0 12.0 0.00 0.00 0.00 69 1010.1
20260901020011 64 173 6.0 14.0 0.00 0.00 0.00 69 1010.0
20260901015512 64 360 5.0 15.0 0.00 0.00 0.00 70 1010.0
20260901015011 64 184 7.0 19.0 0.00 0.00 0.00 70 1010.0
20260901014511 64 182 9.0 19.0 0.00 0.00 0.00 71 1010.0
20260901014011 64 360 7.0 13.0 0.00 0.00 0.00 73 1010.3
20260901013511 63 360 6.0 13.0 0.00 0.00 0.00 74 1010.4
20260901013012 63 179 4.0 10.0 0.00 0.00 0.00 75 1010.5
20260901012513 63 155 3.0 9.0 0.00 0.00 0.00 76 1010.5
20260901012011 63 360 3.0 8.0 0.00 0.00 0.00 77 1010.6
20260901011510 62 137 3.0 12.0 0.00 0.00 0.00 78 1010.7
20260901011011 62 132 3.0 11.0 0.00 0.00 0.00 78 1010.8
20260901010512 62 192 2.0 8.0 0.00 0.00 0.00 78 1010.8
20260901010009 63 118 2.0 8.0 0.00 0.00 0.00 78 1010.8
20260901005510 63 92 2.0 9.0 0.00 0.00 0.00 77 1010.8
20260901005014 63 182 3.0 10.0 0.00 0.00 0.00 77 1010.7
20260901004509 63 183 6.0 10.0 0.00 0.00 0.00 78 1010.7
20260901004013 63 194 4.0 13.0 0.00 0.00 0.00 78 1010.8
20260901003509 63 177 5.0 15.0 0.00 0.00 0.00 78 1010.8
20260901003012 63 186 5.0 14.0 0.00 0.00 0.00 78 1010.9
20260901002513 63 167 6.0 14.0 0.00 0.00 0.00 78 1010.8
20260901002008 63 122 6.0 13.0 0.00 0.00 0.00 78 1010.7
20260901001515 63 153 6.0 13.0 0.00 0.00 0.00 78 1010.8
20260901001007 63 170 6.0 12.0 0.00 0.00 0.00 78 1010.8
20260901000508 64 138 7.0 13.0 0.00 0.00 0.00 77 1010.6
20260901000006 64 130 6.0 13.0 0.00 0.00 0.00 75 1010.4
20260831235505 64 130 6.0 12.0 0.00 0.00 0.00 73 1010.1
20260831235006 65 187 4.0 12.0 0.00 0.00 0.00 72 1009.7
20260831234506 65 182 4.0 14.0 0.00 0.00 0.00 72 1009.7
20260831234003 66 225 4.0 14.0 0.00 0.00 0.00 71 1009.4
20260831233505 66 252 6.0 11.0 0.00 0.00 0.00 70 1009.2
20260831233003 66 188 5.0 11.0 0.00 0.00 0.00 68 1009.2
20260831232506 67 178 8.0 19.0 0.00 0.00 0.00 66 1009.1
20260831232002 68 181 7.0 19.0 0.00 0.00 0.00 63 1009.1
20260831231501 68 360 7.0 28.0 0.00 0.00 0.00 61 1008.9
20260831231002 70 189 12.0 28.0 0.00 0.00 0.00 57 1008.4
20260831230503 72 205 9.0 15.0 0.00 0.00 0.00 52 1008.0
20260831230002 74 207 8.0 16.0 0.00 0.00 0.00 47 1007.7
20260831225600 75 205 11.0 16.0 0.00 0.00 0.00 43 1007.3
20260831225502 76 182 11.0 19.0 0.00 0.00 0.00 43 1007.4
20260831225101 76 198 9.0 19.0 0.00 0.00 0.00 45 1007.2
20260831224501 76 257 6.0 12.0 0.00 0.00 0.00 47 1007.1
20260831224002 75 233 3.0 7.0 0.00 0.00 0.00 47 1007.0
20260831223601 74 269 5.0 12.0 0.00 0.00 0.00 49 1006.6
20260831223104 74 276 5.0 16.0 0.00 0.00 0.00 50 1006.4
20260831222600 74 256 8.0 19.0 0.00 0.00 0.00 50 1006.3
20260831222058 76 247 7.0 18.0 0.00 0.00 0.00 53 1006.4
20260831221606 76 196 7.0 17.0 0.00 0.00 0.00 52 1006.0
20260831221059 78 260 11.0 17.0 0.00 0.00 0.00 51 1006.0
20260831220557 79 216 3.0 9.0 0.00 0.00 0.00 45 1005.7
20260831220124 79 223 3.0 8.0 0.00 0.00 0.00 46 1005.5
20260831215600 78 271 2.0 15.0 0.00 0.00 0.00 48 1005.1
20260831215056 79 252 6.0 15.0 0.00 0.00 0.00 48 1005.4
20260831214557 80 295 6.0 12.0 0.00 0.00 0.00 47 1005.3
20260831214056 82 266 5.0 12.0 0.00 0.00 0.00 44 1005.5
20260831213555 84 252 3.0 9.0 0.00 0.00 0.00 34 1005.6
20260831213055 84 191 5.0 11.0 0.00 0.00 0.00 33 1005.5
20260831212556 84 171 4.0 13.0 0.00 0.00 0.00 33 1005.6
20260831212054 84 171 4.0 13.0 0.00 0.00 0.00 32 1005.6
20260831211554 84 175 3.0 11.0 0.00 0.00 0.00 33 1005.6
20260831211054 85 166 5.0 11.0 0.00 0.00 0.00 32 1005.3
20260831210554 84 180 3.0 9.0 0.00 0.00 0.00 35 1005.5
20260831210053 84 134 3.0 14.0 0.00 0.00 0.00 34 1005.5
20260831205553 83 176 5.0 14.0 0.00 0.00 0.00 35 1005.6
20260831205051 83 198 5.0 14.0 0.00 0.00 0.00 33 1005.7
20260831204557 84 184 6.0 14.0 0.00 0.00 0.00 33 1005.8
20260831204050 84 180 4.0 14.0 0.00 0.00 0.00 34 1005.9
20260831203549 84 166 2.0 12.0 0.00 0.00 0.00 35 1005.9
20260831203101 85 141 4.0 14.0 0.00 0.00 0.00 35 1006.0
20260831202548 85 147 6.0 16.0 0.00 0.00 0.00 34 1006.0
20260831202049 85 144 7.0 16.0 0.00 0.00 0.00 35 1006.2
20260831201547 85 182 6.0 13.0 0.00 0.00 0.00 34 1006.2
20260831201046 85 138 3.0 12.0 0.00 0.00 0.00 37 1006.3
20260831200545 85 180 5.0 15.0 0.00 0.00 0.00 35 1006.5
20260831200050 85 161 6.0 15.0 0.00 0.00 0.00 35 1006.7
20260831195547 84 181 4.0 13.0 0.00 0.00 0.00 37 1006.8
20260831195042 84 170 5.0 12.0 0.00 0.00 0.00 37 1006.8
20260831194543 83 182 8.0 14.0 0.00 0.00 0.00 35 1006.9
20260831194041 82 164 6.0 13.0 0.00 0.00 0.00 37 1006.9
20260831193542 81 192 6.0 15.0 0.00 0.00 0.00 36 1007.2
20260831193039 81 172 4.0 12.0 0.00 0.00 0.00 37 1007.3
20260831192538 81 182 4.0 14.0 0.00 0.00 0.00 36 1007.5
20260831192037 82 126 5.0 14.0 0.00 0.00 0.00 36 1007.5
20260831191537 82 158 8.0 13.0 0.00 0.00 0.00 36 1007.5
20260831191034 81 129 6.0 16.0 0.00 0.00 0.00 37 1007.5
20260831190534 80 162 6.0 16.0 0.00 0.00 0.00 37 1007.6
20260831190051 81 142 8.0 16.0 0.00 0.00 0.00 36 1007.7
20260831185535 81 138 4.0 11.0 0.00 0.00 0.00 37 1007.8
20260831185033 81 169 5.0 16.0 0.00 0.00 0.00 36 1007.9
20260831184532 80 175 3.0 11.0 0.00 0.00 0.00 41 1008.0
20260831184032 80 142 3.0 11.0 0.00 0.00 0.00 41 1008.0
20260831183532 80 180 5.0 10.0 0.00 0.00 0.00 39 1008.2
20260831183028 80 175 4.0 10.0 0.00 0.00 0.00 40 1008.2
20260831182529 78 140 3.0 10.0 0.00 0.00 0.00 42 1008.4
20260831182026 78 130 3.0 12.0 0.00 0.00 0.00 42 1008.6
20260831181527 78 128 3.0 11.0 0.00 0.00 0.00 43 1008.7
20260831181024 78 128 4.0 11.0 0.00 0.00 0.00 43 1008.7
20260831180524 77 183 5.0 10.0 0.00 0.00 0.00 44 1008.8
20260831180036 77 171 2.0 10.0 0.00 0.00 0.00 48 1008.6
20260831174131 76 104 2.0 8.0 0.00 0.00 0.00 52 1008.8
20260831173528 76 104 3.0 9.0 0.00 0.00 0.00 52 1008.9
20260831173028 75 128 4.0 11.0 0.00 0.00 0.00 50 1008.9
20260831172532 75 142 4.0 10.0 0.00 0.00 0.00 51 1008.9
20260831172028 75 143 3.0 9.0 0.00 0.00 0.00 51 1009.0
20260831171530 75 137 2.0 9.0 0.00 0.00 0.00 52 1009.0
20260831171031 75 140 3.0 11.0 0.00 0.00 0.00 50 1009.0
20260831170528 75 140 4.0 14.0 0.00 0.00 0.00 51 1009.0
20260831170034 75 128 3.0 8.0 0.00 0.00 0.00 51 1009.0
20260831165532 76 122 4.0 10.0 0.00 0.00 0.00 50 1009.0
20260831165026 75 115 4.0 11.0 0.00 0.00 0.00 50 1009.1
20260831164527 75 117 4.0 12.0 0.00 0.00 0.00 50 1009.0
20260831164028 75 75 4.0 12.0 0.00 0.00 0.00 53 1009.0
20260831163523 74 44 3.0 7.0 0.00 0.00 0.00 55 1009.0
20260831163023 74 129 2.0 7.0 0.00 0.00 0.00 56 1008.9
20260831162523 74 143 1.0 8.0 0.00 0.00 0.00 55 1008.8
20260831162023 74 100 3.0 8.0 0.00 0.00 0.00 54 1009.0
20260831161522 75 103 3.0 8.0 0.00 0.00 0.00 52 1008.9
20260831161021 75 115 3.0 7.0 0.00 0.00 0.00 51 1009.0
20260831160520 74 122 3.0 7.0 0.00 0.00 0.00 52 1008.8
20260831160036 73 92 2.0 8.0 0.00 0.00 0.00 53 1008.8
20260831155518 73 96 2.0 8.0 0.00 0.00 0.00 52 1008.9
20260831155016 73 81 1.0 5.0 0.00 0.00 0.00 50 1008.9
20260831154514 73 121 2.0 6.0 0.00 0.00 0.00 49 1009.0
20260831154012 72 33 3.0 5.0 0.00 0.00 0.00 48 1009.1
20260831153511 71 49 1.0 5.0 0.00 0.00 0.00 49 1009.1
20260831153025 71 46 3.0 5.0 0.00 0.00 0.00 48 1009.0
20260831152508 70 63 2.0 6.0 0.00 0.00 0.00 50 1009.0
20260831152010 70 84 0.0 6.0 0.00 0.00 0.00 54 1009.1
20260831151505 69 132 2.0 5.0 0.00 0.00 0.00 55 1009.2
20260831151003 69 135 3.0 8.0 0.00 0.00 0.00 58 1009.3
20260831150502 68 185 2.0 8.0 0.00 0.00 0.00 60 1009.4
20260831150002 68 129 2.0 7.0 0.00 0.00 0.00 63 1009.3
20260831145500 68 188 1.0 9.0 0.00 0.00 0.00 64 1009.4
20260831145059 68 102 2.0 9.0 0.00 0.00 0.00 65 1009.4
20260831144606 67 190 3.0 8.0 0.00 0.00 0.00 65 1009.6
20260831144057 67 182 2.0 7.0 0.00 0.00 0.00 66 1009.5
20260831143556 66 183 3.0 8.0 0.00 0.00 0.00 67 1009.6
20260831143055 66 184 4.0 8.0 0.00 0.00 0.00 69 1009.7
20260831142551 65 182 3.0 8.0 0.00 0.00 0.00 70 1009.5
20260831142050 64 182 3.0 8.0 0.00 0.00 0.00 73 1009.4
20260831141549 63 173 2.0 7.0 0.00 0.00 0.00 75 1009.4
20260831141049 62 118 0.0 1.0 0.00 0.00 0.00 76 1009.5
20260831140550 62 107 0.0 2.0 0.00 0.00 0.00 76 1009.6
20260831140048 62 107 0.0 2.0 0.00 0.00 0.00 76 1009.5
20260831135547 62 130 0.0 3.0 0.00 0.00 0.00 77 1009.5
20260831135046 61 130 1.0 3.0 0.00 0.00 0.00 77 1009.3
20260831134546 61 126 0.0 4.0 0.00 0.00 0.00 78 1009.3
20260831134047 61 134 1.0 6.0 0.00 0.00 0.00 78 1009.3
20260831133544 61 143 2.0 6.0 0.00 0.00 0.00 78 1009.2
20260831133044 61 146 0.0 3.0 0.00 0.00 0.00 78 1009.1
20260831132543 61 139 0.0 2.0 0.00 0.00 0.00 79 1009.2
20260831132043 60 134 0.0 2.0 0.00 0.00 0.00 79 1009.1
20260831131543 60 118 0.0 0.0 0.00 0.00 0.00 80 1009.1
20260831131047 59 115 0.0 0.0 0.00 0.00 0.00 79 1009.3
20260831130541 59 115 0.0 2.0 0.00 0.00 0.00 78 1009.1
20260831130046 59 115 0.0 3.0 0.00 0.00 0.00 78 1009.1
20260831125540 59 105 0.0 3.0 0.00 0.00 0.00 77 1009.0
20260831125040 60 123 1.0 3.0 0.00 0.00 0.00 76 1009.0
20260831124539 60 121 0.0 3.0 0.00 0.00 0.00 75 1009.0
20260831124040 61 132 1.0 3.0 0.00 0.00 0.00 75 1009.0
20260831123539 61 119 1.0 4.0 0.00 0.00 0.00 75 1008.9
20260831123047 61 100 1.0 6.0 0.00 0.00 0.00 74 1008.9
20260831122540 61 103 2.0 6.0 0.00 0.00 0.00 73 1008.9
20260831122038 61 115 1.0 4.0 0.00 0.00 0.00 72 1009.0
20260831121542 62 90 1.0 3.0 0.00 0.00 0.00 72 1009.1
20260831121039 62 98 0.0 6.0 0.00 0.00 0.00 70 1009.2
20260831120539 64 84 1.0 6.0 0.00 0.00 0.00 69 1009.1
20260831120111 64 156 1.0 6.0 0.00 0.00 0.00 70 1009.1
20260831115538 64 129 2.0 6.0 0.00 0.01 0.00 70 1009.0
20260831115039 64 171 0.0 5.0 0.00 0.01 0.00 71 1009.0
20260831114537 63 162 1.0 6.0 0.00 0.01 0.00 71 1009.1
20260831114037 63 182 0.0 3.0 0.00 0.01 0.00 71 1009.0
20260831113537 62 178 0.0 3.0 0.00 0.01 0.00 73 1009.0
20260831113037 62 132 0.0 4.0 0.00 0.01 0.00 72 1009.2
20260831112538 62 132 1.0 3.0 0.00 0.01 0.00 72 1009.1
20260831112037 62 157 0.0 3.0 0.00 0.01 0.00 73 1009.1
20260831111545 62 153 0.0 6.0 0.00 0.01 0.00 73 1009.0
20260831111035 61 167 0.0 3.0 0.00 0.01 0.00 74 1008.9